EHI
0 0 0 0 0 0 0 0 1 3 4 7 12 13 15 20 25 30 32 35 39 37 33 30 31 35 35 32 29 28 29 30 30 29 25 22 22 22 21 21 23 27 28 26
0 0 0 0 1 1 1 1 2 4 6 9 12 14 16 19 24 29 32 34 37 36 32 29 30 35 37 34 33 33 33 33 33 32 29 26 25 25 25 25 27 30 31 29
0 0 0 1 2 2 2 3 4 6 9 11 13 15 17 19 23 27 30 32 34 32 29 28 31 35 37 37 37 38 37 36 35 34 33 30 29 30 31 31 33 36 35 33
0 0 1 2 2 2 3 4 6 9 11 13 14 15 18 21 24 27 30 33 34 31 30 33 35 36 36 36 37 38 37 35 35 35 35 35 34 35 37 37 38 38 36 34
0 0 1 2 2 2 3 5 7 8 10 13 14 15 19 25 28 30 34 36 35 32 33 37 40 39 37 35 34 34 34 34 34 36 37 39 39 41 41 40 38 36 33 32
0 0 1 2 2 2 3 4 6 7 10 14 15 16 20 27 30 32 35 36 35 33 34 37 40 41 39 35 31 32 33 35 37 39 41 42 42 43 42 38 34 33 32 31
0 0 1 3 2 2 3 6 8 10 13 15 17 19 24 27 29 30 31 31 32 33 35 37 38 39 39 34 31 31 34 38 40 41 42 42 42 42 41 38 33 32 32 31
0 0 2 5 5 6 9 11 12 13 15 18 20 24 28 28 27 25 25 25 27 31 35 35 34 35 36 32 29 28 32 36 37 38 39 40 40 40 41 39 36 32 30 29
1 1 4 8 11 12 14 15 15 14 15 16 20 24 27 27 24 21 19 19 21 26 30 30 28 28 30 29 27 27 29 32 33 34 35 37 37 37 37 37 35 32 28 26
4 4 6 10 14 14 14 14 14 13 12 13 16 19 22 25 22 18 15 15 18 21 24 25 24 23 24 25 25 26 28 29 30 30 30 31 31 30 30 30 30 28 24 22
6 6 8 11 12 12 13 12 11 9 8 9 11 13 17 21 21 17 13 14 17 18 19 22 23 22 22 22 22 23 25 26 25 25 25 26 25 21 20 20 20 19 17 16
11 11 12 12 12 12 13 12 9 8 7 7 8 10 14 17 18 15 13 14 17 18 18 19 20 20 20 20 20 22 22 22 21 20 21 22 20 17 13 11 9 8 8 8
16 15 14 14 15 14 13 11 9 8 8 8 8 10 13 15 15 14 14 15 17 18 17 16 17 18 19 19 20 20 20 19 18 17 16 17 17 15 12 7 3 2 2 2
15 15 15 16 16 13 11 10 9 8 9 8 9 12 15 16 16 15 15 15 17 18 17 15 15 18 18 18 18 18 17 16 15 13 12 13 14 14 12 8 4 2 2 1
13 14 15 15 13 10 9 8 8 7 8 9 10 12 16 18 17 18 17 16 16 17 17 16 16 18 18 17 17 17 16 14 13 12 10 10 11 12 11 9 7 6 5 3
12 12 13 12 10 8 7 7 7 7 9 10 9 11 15 17 17 19 18 16 16 17 18 19 19 19 18 17 17 16 15 13 12 12 10 9 9 10 10 10 9 9 8 7
10 10 9 9 8 7 7 7 6 7 9 10 9 9 11 14 16 18 19 18 18 18 19 20 21 20 19 19 18 16 15 13 10 10 10 10 10 11 11 11 11 10 9 8
7 7 7 7 7 8 8 7 7 8 10 11 10 9 9 11 14 17 18 19 19 19 20 19 18 17 17 18 18 15 13 11 9 8 10 11 12 12 12 11 11 10 8 6
6 6 5 5 7 9 9 8 8 10 12 13 12 10 9 10 12 15 16 17 18 19 20 18 14 12 13 13 13 13 11 8 6 7 10 10 11 11 11 11 10 9 7 5
5 4 3 4 6 8 7 7 8 11 14 14 12 10 10 11 12 13 14 15 16 18 18 15 12 11 10 8 8 9 8 6 4 6 8 9 10 11 11 11 10 9 7 6
3 3 2 3 4 4 4 6 7 10 12 12 10 9 8 9 11 11 11 11 11 13 14 13 11 10 8 6 6 7 6 4 4 5 7 9 9 9 10 10 9 8 8 7
2 2 2 2 2 2 3 4 6 8 9 8 7 7 7 7 7 6 6 7 7 7 9 9 7 6 5 4 6 8 7 6 7 7 7 7 6 5 6 6 6 6 6 6
3 2 2 2 2 3 3 4 6 7 6 5 4 5 5 5 4 3 3 3 3 3 4 5 3 2 2 4 7 10 10 10 10 8 5 3 3 2 2 2 2 3 4 4
3 3 3 3 3 3 3 3 5 6 5 3 3 3 3 3 3 3 2 2 2 1 2 2 1 0 2 5 8 10 11 10 9 6 4 2 1 1 1 0 0 2 3 3
2 2 2 2 2 2 1 1 3 4 4 3 3 3 3 3 3 3 3 2 2 2 2 1 0 0 3 6 7 8 8 8 6 5 4 3 1 0 1 1 1 2 3 3
1 1 1 1 1 1 0 0 1 2 3 3 4 4 3 3 3 3 3 4 3 3 4 2 1 2 4 6 6 6 6 6 6 6 6 4 1 1 2 2 2 2 2 2
0 0 0 0 0 0 0 0 0 1 2 3 4 4 3 3 3 3 4 5 5 5 4 3 2 3 5 6 6 6 6 6 6 6 6 4 2 2 3 3 2 1 1 1
Wind_Speed
9 6 8 10 11 13 14 13 12 9 9 5 2 1 1 2 4 5 7 7 7 7 7 7 8 8 8 8 9 9 9 9 9 8 7 7 7 6 6 5 5 5 5 4
11 10 10 11 12 13 13 13 13 11 8 2 2 1 1 3 4 5 6 6 7 7 7 7 8 8 8 8 8 9 9 9 8 8 8 8 7 7 6 6 5 5 5 4
13 12 12 16 15 14 12 11 11 11 6 2 2 2 2 2 3 4 5 5 6 6 5 6 7 7 8 8 9 9 9 8 8 8 8 7 7 7 7 7 6 6 5 5
10 10 17 9 6 9 10 9 8 7 5 4 3 2 2 2 2 3 3 4 5 5 5 5 6 7 7 8 9 9 9 9 8 8 8 7 7 7 7 6 6 5 5 5
10 14 13 8 8 9 11 9 7 7 5 3 3 4 4 2 1 2 2 2 3 4 4 4 5 7 8 8 8 8 8 9 9 9 8 8 7 7 6 6 6 6 5 5
11 13 14 8 7 6 9 10 5 5 5 4 5 7 3 2 0 1 1 2 3 4 4 4 5 6 8 8 8 7 7 7 7 8 8 8 7 6 6 5 5 5 5 5
13 12 8 2 4 8 12 5 4 5 5 5 5 4 1 1 1 1 2 2 3 4 4 4 5 5 6 6 6 6 6 6 6 6 7 6 6 6 6 5 5 4 4 4
12 13 8 4 6 7 1 1 2 3 3 3 2 1 1 1 1 2 2 3 3 4 4 4 5 6 5 5 5 5 6 6 6 6 5 5 6 6 5 6 6 5 5 4
6 4 3 3 2 0 1 1 1 2 2 2 2 1 1 2 2 2 2 2 3 4 3 3 4 4 5 5 5 5 6 6 5 6 5 5 5 6 5 5 5 5 5 5
5 5 3 3 2 2 2 2 2 2 2 2 2 2 1 1 2 2 2 2 3 3 3 3 3 3 4 5 6 6 6 5 5 5 5 5 4 4 4 4 4 4 4 4
7 5 4 4 2 2 1 2 2 2 2 2 2 2 2 2 2 2 2 2 2 3 3 3 3 3 3 4 5 6 6 5 5 5 5 4 4 2 4 3 2 3 3 3
5 3 4 3 2 2 2 2 2 2 2 2 2 2 2 1 2 2 2 2 2 3 3 3 3 3 3 4 5 5 5 5 4 4 4 4 4 3 2 0 3 1 1 2
5 4 3 2 2 3 2 2 2 1 2 2 1 2 1 1 1 2 2 2 3 3 3 4 3 3 3 4 4 4 4 4 4 4 4 4 4 4 3 2 2 3 3 3
5 4 5 4 3 2 2 2 2 2 1 1 2 2 1 1 1 2 2 2 3 3 4 4 4 3 3 3 4 4 4 4 3 3 3 4 4 4 4 4 4 4 5 7
7 6 5 4 3 3 3 3 3 2 2 2 2 1 1 1 1 2 2 2 3 4 4 3 3 3 3 3 4 4 3 3 3 3 3 4 4 4 4 4 4 3 3 5
6 6 6 5 5 4 5 4 4 3 3 2 2 1 1 1 1 2 2 3 3 3 3 3 3 2 2 3 3 3 2 2 2 3 3 3 4 4 4 4 4 3 3 3
6 6 6 6 5 4 4 4 3 3 3 2 2 2 2 2 3 3 2 3 3 3 3 3 3 3 3 3 3 2 2 3 4 4 3 3 3 4 4 3 3 3 3 2
6 5 5 5 5 4 4 4 3 3 3 3 2 3 3 3 3 3 3 3 3 3 2 3 3 3 3 3 2 2 2 2 3 3 3 3 3 3 3 3 3 4 3 3
4 4 4 4 4 3 3 3 3 3 3 3 3 4 3 3 3 3 3 3 3 3 2 2 2 3 3 2 2 2 2 2 2 3 3 3 4 3 3 3 3 4 4 3
4 4 3 3 3 3 3 3 3 3 3 3 4 4 4 3 3 3 3 2 1 0 2 2 2 2 2 2 3 2 2 2 2 3 3 4 3 3 3 4 4 4 4 4
4 3 3 3 3 2 2 3 3 3 3 3 4 4 3 3 3 3 3 2 1 1 2 2 2 2 1 1 3 2 2 2 3 3 3 3 3 3 3 4 4 4 4 4
3 3 3 3 3 2 2 3 3 3 3 3 4 4 3 3 3 2 1 1 1 2 2 3 2 1 0 2 2 2 2 2 2 2 2 2 3 3 4 4 4 4 4 4
2 2 2 2 2 2 2 2 3 3 3 3 3 3 2 2 2 2 1 1 1 1 1 1 1 1 1 2 1 1 1 1 1 2 2 2 3 3 3 4 4 4 4 4
2 2 2 1 1 2 2 2 2 2 3 2 2 2 2 2 1 1 2 2 2 2 1 2 2 1 3 1 0 1 1 1 2 2 2 1 2 2 2 3 3 3 3 3
3 2 2 2 2 2 3 3 3 3 3 3 3 3 2 1 1 1 1 3 4 3 3 3 3 3 3 1 1 1 1 1 2 2 2 2 2 2 2 2 2 2 3 3
2 2 2 2 2 2 2 2 2 2 2 2 2 2 2 2 2 1 2 3 4 2 1 2 3 3 2 1 0 1 1 1 2 2 2 2 2 3 2 2 3 3 3 3
3 2 2 2 3 2 2 2 2 2 2 2 2 2 2 2 1 1 2 2 2 2 2 1 1 1 1 0 0 1 1 1 1 2 2 2 2 3 3 3 3 3 3 3
Wind_Direction
240 238 221 215 215 217 232 245 251 244 245 252 260 283 196 176 166 168 166 168 171 174 169 170 174 179 180 181 178 177 178 180 177 177 178 178 182 185 186 191 193 185 184 186
227 228 231 231 228 225 230 240 247 252 252 276 260 242 190 182 180 178 178 178 176 175 174 178 177 178 176 178 176 176 180 183 177 176 178 181 184 182 182 188 189 183 185 185
224 219 230 232 228 225 225 234 247 249 251 243 232 224 232 207 192 184 182 183 179 176 176 177 178 179 179 176 174 176 179 180 181 180 181 182 182 179 181 183 182 184 184 184
226 208 229 229 218 224 226 232 238 252 260 253 246 217 198 206 192 180 178 180 173 173 173 174 171 172 171 168 171 174 174 176 182 184 183 181 180 181 181 180 181 182 183 182
225 221 224 207 202 214 219 224 230 239 237 234 218 198 171 145 160 161 166 173 170 166 163 159 163 164 162 166 170 174 177 176 182 185 185 182 182 181 181 181 182 186 183 185
226 232 229 205 183 212 225 224 211 231 231 232 233 235 179 115 155 156 148 149 151 143 140 149 154 158 163 167 170 177 179 179 179 183 185 185 181 180 176 180 184 188 180 185
227 232 234 161 168 193 218 215 187 218 228 231 241 287 17 151 154 143 126 135 141 140 139 143 147 152 165 167 171 171 169 170 173 178 182 180 175 175 174 178 180 188 177 180
220 227 217 144 185 208 231 73 203 210 218 228 232 203 182 167 135 142 140 142 145 139 135 144 153 159 166 171 166 163 164 164 164 169 175 168 169 171 175 178 180 182 181 185
226 228 96 147 174 206 282 251 251 227 204 197 191 182 166 147 143 152 156 149 147 144 141 150 158 164 168 165 159 159 162 162 162 165 164 160 164 169 177 185 193 187 187 190
224 206 191 196 201 241 270 265 247 227 205 186 190 189 170 156 149 156 167 163 155 154 157 156 159 165 166 164 163 164 164 162 162 162 164 164 172 176 185 187 196 197 198 199
225 214 208 207 223 256 254 228 221 208 194 186 180 186 180 171 170 164 171 164 164 169 167 164 160 163 160 162 167 169 167 166 171 172 166 162 173 184 205 196 202 214 211 207
232 206 235 215 206 247 236 212 202 199 201 189 186 184 193 193 182 177 176 164 166 175 170 162 161 162 158 169 176 174 173 176 182 183 172 176 170 175 94 51 108 123 334 282
270 272 271 257 247 242 238 222 202 196 201 211 197 186 189 197 200 185 177 175 171 170 163 158 159 160 158 173 178 182 186 185 191 187 183 192 193 193 185 169 165 190 206 221
242 239 243 236 232 222 226 226 199 182 192 196 178 174 165 174 189 189 190 180 165 157 157 157 160 165 165 174 181 189 198 187 201 198 198 200 204 211 212 206 201 202 198 203
239 232 227 225 229 230 226 209 198 190 178 175 174 181 178 190 197 189 185 178 161 156 159 159 166 168 172 177 182 193 200 195 204 213 213 207 205 215 219 217 221 217 199 180
224 216 211 217 223 227 219 206 200 194 185 185 193 203 218 208 194 182 183 179 165 166 166 170 168 164 171 174 181 188 186 170 215 217 215 210 209 215 216 218 221 223 226 220
215 210 208 213 219 219 213 207 205 198 188 192 200 206 204 189 179 179 187 179 168 170 175 176 168 165 174 182 189 188 180 167 196 215 213 214 215 216 217 221 222 224 229 219
232 227 224 220 216 211 208 205 204 202 200 199 210 207 199 184 175 171 171 163 164 170 173 170 161 171 179 188 201 206 199 193 202 210 209 213 222 226 230 230 229 236 239 210
207 208 207 204 199 198 198 195 197 196 190 191 197 196 193 185 175 175 173 175 181 181 165 149 157 190 183 186 223 210 212 213 215 212 213 209 224 228 231 239 240 240 242 239
185 188 181 176 176 181 182 179 183 187 186 187 185 181 179 179 174 175 182 192 205 162 141 147 173 190 188 194 253 225 210 214 219 215 217 221 223 225 233 241 244 243 244 242
174 170 167 165 164 169 175 181 188 187 184 187 180 176 178 174 173 179 188 183 154 166 158 156 188 193 196 213 253 246 225 222 222 219 223 227 227 231 238 243 247 251 250 249
162 167 172 164 155 157 169 179 181 179 173 170 166 168 165 168 168 158 167 190 160 190 191 174 174 136 280 254 239 241 235 234 238 239 239 245 243 242 245 252 254 256 257 255
152 151 146 145 152 158 154 158 167 170 164 162 162 165 168 172 176 164 153 158 167 160 181 126 100 115 257 239 238 245 252 257 261 252 244 249 255 257 257 258 261 261 259 260
119 111 107 110 126 131 129 131 140 140 141 143 138 140 155 148 132 129 118 119 119 145 152 110 126 176 232 218 261 286 275 262 260 264 268 265 265 262 258 258 261 265 264 264
109 105 101 106 121 124 134 141 135 133 138 126 123 126 132 123 131 129 137 141 149 168 157 140 171 207 220 188 167 227 263 301 312 305 288 281 280 279 278 278 276 268 270 273
106 103 88 88 88 106 120 123 125 124 124 115 109 108 108 114 128 149 166 158 155 173 182 155 165 196 205 176 169 251 271 244 248 262 294 297 291 287 282 277 274 275 277 283
116 116 112 106 99 92 99 109 113 112 117 123 123 129 139 145 152 168 180 165 155 161 161 166 171 177 211 229 235 259 266 269 279 298 302 297 293 289 287 280 280 284 285 289